This demonstration page uses our WeatherBlox Daily Observations layout. Learn more.

Left ArrowRight Arrow

41.55636, -103.73856

Hourly Observations for July 31, 2015

Temp ( °F °C ) Dew Point ( °F °C ) Humidity (%) Winds ( mph kmh ) Pressure ( in mb ) Visibility ( mi km ) Precip ( " mm )
12:53 am 00:53 Clear 65 18.3 59 15 81 81 E 6 9 30.13 1020 10 16.0934 0 0
1:53 am 01:53 Clear 63 17.2 59 15 87 87 E 6 9 30.13 1020 10 16.0934 0 0
2:53 am 02:53 Clear 62 16.7 58 14.4 86 86 N 3 6 30.12 1020 10 16.0934 0 0
3:53 am 03:53 Clear 60 15.6 57 13.9 90 90 NNE 3 6 30.12 1020 10 16.0934 0 0
4:53 am 04:53 Clear 60 15.6 56 13.3 86 86 Calm 30.12 1020 10 16.0934 0 0
5:53 am 05:53 Sunny 59 15 57 13.9 93 93 S 3 6 30.12 1020 10 16.0934 0 0
6:53 am 06:53 Sunny 62 16.7 59 15 90 90 E 3 6 30.14 1021 10 16.0934 0 0
7:53 am 07:53 Sunny 66 18.9 59 15 78 78 E 5 7 30.15 1021 10 16.0934 0 0
8:53 am 08:53 Sunny 71 21.7 59 15 66 66 SE 5 7 30.15 1021 10 16.0934 0 0
9:53 am 09:53 Sunny 76 24.4 61 16.1 60 60 E 8 13 30.14 1021 10 16.0934 0 0
10:53 am 10:53 Sunny 80 26.7 61 16.1 52 52 E 7 11 30.14 1021 10 16.0934 0 0
11:53 am 11:53 Sunny 84 28.9 63 17.2 49 49 ESE 8 13 30.11 1020 10 16.0934 0 0
12:53 pm 12:53 Sunny 87 30.6 64 17.8 46 46 ESE 9 15 30.08 1019 10 16.0934 0 0
1:53 pm 13:53 Sunny 90 32.2 62 16.7 39 39 E 12 19 30.05 1018 10 16.0934 0 0
2:53 pm 14:53 Sunny 93 33.9 48 8.9 21 21 S 10 17 30.03 1017 10 16.0934 0 0
3:24 pm 15:24 Mostly Sunny 90 32 52 11 27 27 SW 20 31 29.83 1010 10 16.0934 0 0
3:53 pm 15:53 Sunny 89 31.7 51 10.6 27 27 SW 20 31 30.03 1017 10 16.0934 0 0
4:53 pm 16:53 Sunny 89 31.7 47 8.3 23 23 SSW 13 20 30.02 1017 10 16.0934 0 0
5:53 pm 17:53 Sunny 89 31.7 46 7.8 23 23 Calm 30 1016 10 16.0934 0 0
6:53 pm 18:53 Sunny 84 28.9 58 14.4 41 41 ENE 7 11 30 1016 10 16.0934 0 0
7:53 pm 19:53 Sunny 77 25 60 15.6 56 56 ENE 7 11 30.01 1016 10 16.0934 0 0
8:53 pm 20:53 Clear 72 22.2 58 14.4 61 61 E 7 11 30.01 1016 10 16.0934 0 0
9:53 pm 21:53 Clear 69 20.6 58 14.4 68 68 E 6 9 30.03 1017 10 16.0934 0 0
10:53 pm 22:53 Clear 67 19.4 57 13.9 71 71 E 7 11 30.02 1017 10 16.0934 0 0
11:53 pm 23:53 Clear 66 18.9 57 13.9 73 73 ESE 8 13 30.01 1016 10 16.0934 0 0

Powered by AerisWeather